STARLINK-34676

Last updated on Tue Aug 19 2025 00:02:06 GMT+0000 (Coordinated Universal Time)

1 64853U 25152M 25230.58335648 .00037255 00000+0 95317-3 0 9994 2 64853 97.6042 84.1648 0001330 58.8051 262.6722 15.39330868 5425

Satellite not in orbit

STARLINK-34676